• In Italy
  • List of Countries
  • For 7 days
  • Water Temperature
  • Satellite Maps
  • Weather Map
  • Weather Widgets
  • user-avatar
    Login

    Hourly Weather Lisburn

    Today, 19 September, Wednesday

    Time Temperature Precipitation Wind Pressure Humidity
    00:00 +10°C° 0 mm 9 mps 746 mmHg 77%
    01:00 +10°C° 0 mm 9 mps 746 mmHg 77%
    02:00 +10°C° 0 mm 8 mps 746 mmHg 77%
    03:00 +10°C° 0 mm 8 mps 746 mmHg 76%
    04:00 +10°C° 0.3 mm 9 mps 745 mmHg 81%
    05:00 +10°C° 0.3 mm 9 mps 744 mmHg 85%
    06:00 +10°C° 0.3 mm 9 mps 744 mmHg 89%
    07:00 +11°C° 0.9 mm 11 mps 742 mmHg 89%
    08:00 +12°C° 0.9 mm 13 mps 741 mmHg 88%
    09:00 +13°C° 0.9 mm 15 mps 739 mmHg 87%
    10:00 +11°C° 0.1 mm 15 mps 740 mmHg 79%
    11:00 +11°C° 0.1 mm 15 mps 742 mmHg 71%
    12:00 +11°C° 0.1 mm 15 mps 743 mmHg 63%
    13:00 +12°C° 0 mm 14 mps 744 mmHg 61%
    14:00 +10°C° 0 mm 13 mps 746 mmHg 58%
    15:00 +10°C° 0 mm 12 mps 747 mmHg 56%
    16:00 +11°C° 0 mm 11 mps 747 mmHg 58%
    17:00 +9°C° 0 mm 11 mps 748 mmHg 61%
    18:00 +8°C° 0 mm 10 mps 748 mmHg 64%
    19:00 +8°C° 0 mm 10 mps 749 mmHg 64%
    20:00 +8°C° 0 mm 10 mps 749 mmHg 65%
    21:00 +8°C° 0 mm 10 mps 750 mmHg 66%
    22:00 +7°C° 0 mm 10 mps 750 mmHg 68%
    23:00 +7°C° 0 mm 9 mps 750 mmHg 71%

    Tomorrow, 20 September, Thursday

    Time Temperature Precipitation Wind Pressure Humidity
    00:00 +7°C° 0 mm 9 mps 750 mmHg 73%
    01:00 +7°C° 0 mm 8 mps 750 mmHg 75%
    02:00 +6°C° 0 mm 8 mps 751 mmHg 78%
    03:00 +6°C° 0 mm 7 mps 751 mmHg 80%
    04:00 +6°C° 0 mm 7 mps 751 mmHg 81%
    05:00 +5°C° 0 mm 7 mps 751 mmHg 83%
    06:00 +5°C° 0 mm 6 mps 751 mmHg 85%
    07:00 +7°C° 0 mm 6 mps 751 mmHg 81%
    08:00 +8°C° 0 mm 6 mps 751 mmHg 78%
    09:00 +9°C° 0 mm 6 mps 752 mmHg 74%
    10:00 +10°C° 0 mm 6 mps 751 mmHg 72%
    11:00 +12°C° 0 mm 5 mps 751 mmHg 69%
    12:00 +12°C° 0 mm 5 mps 751 mmHg 67%
    13:00 +12°C° 0 mm 4 mps 751 mmHg 67%
    14:00 +12°C° 0 mm 3 mps 750 mmHg 67%
    15:00 +12°C° 0 mm 3 mps 749 mmHg 67%
    16:00 +11°C° 0.3 mm 3 mps 749 mmHg 74%
    17:00 +10°C° 0.3 mm 2 mps 748 mmHg 81%
    18:00 +9°C° 0.3 mm 2 mps 747 mmHg 88%
    19:00 +9°C° 1.2 mm 2 mps 747 mmHg 90%
    20:00 +8°C° 1.2 mm 2 mps 746 mmHg 93%
    21:00 +8°C° 1.2 mm 2 mps 745 mmHg 95%
    22:00 +8°C° 1.3 mm 3 mps 745 mmHg 95%
    23:00 +6°C° 1.3 mm 4 mps 745 mmHg 94%

    Day after tomorrow, 21 September, Friday

    Time Temperature Precipitation Wind Pressure Humidity
    00:00 +6°C° 1.3 mm 5 mps 744 mmHg 94%
    01:00 +6°C° 0.3 mm 5 mps 745 mmHg 93%
    02:00 +5°C° 0.3 mm 6 mps 745 mmHg 92%
    03:00 +5°C° 0.3 mm 6 mps 745 mmHg 91%
    04:00 +5°C° 0.1 mm 6 mps 746 mmHg 91%
    05:00 +4°C° 0.1 mm 7 mps 746 mmHg 90%
    06:00 +4°C° 0.1 mm 7 mps 746 mmHg 90%
    07:00 +5°C° 0.4 mm 8 mps 746 mmHg 90%
    08:00 +5°C° 0.4 mm 9 mps 746 mmHg 90%
    09:00 +6°C° 0.4 mm 11 mps 747 mmHg 89%
    10:00 +7°C° 0.3 mm 11 mps 747 mmHg 85%
    11:00 +8°C° 0.3 mm 11 mps 748 mmHg 80%
    12:00 +11°C° 0.3 mm 11 mps 749 mmHg 75%
    13:00 +11°C° 0.1 mm 11 mps 750 mmHg 72%
    14:00 +11°C° 0.1 mm 10 mps 750 mmHg 70%
    15:00 +11°C° 0.1 mm 10 mps 751 mmHg 67%
    16:00 +10°C° 0 mm 9 mps 752 mmHg 69%
    17:00 +9°C° 0 mm 8 mps 753 mmHg 72%
    18:00 +7°C° 0 mm 8 mps 754 mmHg 74%
    19:00 +8°C° 0 mm 7 mps 754 mmHg 76%
    20:00 +6°C° 0 mm 7 mps 755 mmHg 78%
    21:00 +6°C° 0 mm 7 mps 756 mmHg 80%
    22:00 +5°C° 0 mm 7 mps 756 mmHg 81%
    23:00 +5°C° 0 mm 7 mps 756 mmHg 82%

    22 September, Saturday

    Time Temperature Precipitation Wind Pressure Humidity
    00:00 +5°C° 0 mm 6 mps 757 mmHg 83%
    01:00 +4°C° 0 mm 6 mps 757 mmHg 84%
    02:00 +4°C° 0 mm 6 mps 758 mmHg 85%
    03:00 +4°C° 0 mm 6 mps 758 mmHg 86%
    04:00 +4°C° 0 mm 6 mps 758 mmHg 88%
    05:00 +4°C° 0 mm 6 mps 758 mmHg 89%
    06:00 +5°C° 0 mm 5 mps 759 mmHg 90%
    07:00 +6°C° 0 mm 5 mps 759 mmHg 86%
    08:00 +7°C° 0 mm 5 mps 759 mmHg 82%
    09:00 +9°C° 0 mm 5 mps 760 mmHg 78%
    10:00 +10°C° 0 mm 4 mps 760 mmHg 75%
    11:00 +11°C° 0 mm 4 mps 760 mmHg 71%
    12:00 +12°C° 0 mm 3 mps 760 mmHg 67%
    13:00 +12°C° 0 mm 3 mps 759 mmHg 68%
    14:00 +12°C° 0 mm 3 mps 759 mmHg 68%
    15:00 +12°C° 0 mm 3 mps 758 mmHg 68%
    16:00 +11°C° 0.1 mm 3 mps 757 mmHg 73%
    17:00 +10°C° 0.1 mm 4 mps 757 mmHg 77%
    18:00 +8°C° 0.1 mm 4 mps 756 mmHg 81%
    19:00 +8°C° 1.3 mm 5 mps 754 mmHg 84%
    20:00 +7°C° 1.3 mm 6 mps 753 mmHg 88%
    21:00 +6°C° 1.3 mm 7 mps 751 mmHg 91%
    22:00 +6°C° 4.4 mm 9 mps 749 mmHg 92%
    23:00 +4°C° 4.4 mm 11 mps 747 mmHg 92%

    23 September, Sunday

    Time Temperature Precipitation Wind Pressure Humidity
    00:00 +4°C° 4.4 mm 12 mps 745 mmHg 93%
    01:00 +4°C° 2.2 mm 13 mps 742 mmHg 93%
    02:00 +4°C° 2.2 mm 13 mps 740 mmHg 93%
    03:00 +5°C° 2.2 mm 14 mps 738 mmHg 93%
    04:00 +4°C° 5.2 mm 15 mps 737 mmHg 92%
    05:00 +4°C° 5.2 mm 15 mps 737 mmHg 92%
    06:00 +4°C° 5.2 mm 16 mps 736 mmHg 91%
    07:00 +3°C° 2.1 mm 17 mps 738 mmHg 89%
    08:00 +5°C° 2.1 mm 17 mps 741 mmHg 88%
    09:00 +5°C° 2.1 mm 18 mps 743 mmHg 86%
    10:00 +6°C° 0.2 mm 17 mps 746 mmHg 80%
    11:00 +8°C° 0.2 mm 15 mps 749 mmHg 73%
    12:00 +8°C° 0.2 mm 14 mps 752 mmHg 67%
    13:00 +9°C° 0 mm 13 mps 754 mmHg 66%
    14:00 +9°C° 0 mm 13 mps 755 mmHg 64%
    15:00 +9°C° 0 mm 12 mps 757 mmHg 63%
    16:00 +8°C° 0 mm 12 mps 758 mmHg 64%
    17:00 +7°C° 0 mm 11 mps 760 mmHg 66%
    18:00 +7°C° 0 mm 10 mps 761 mmHg 67%
    19:00 +6°C° 0 mm 10 mps 763 mmHg 70%
    20:00 +6°C° 0 mm 9 mps 764 mmHg 72%
    21:00 +5°C° 0 mm 9 mps 765 mmHg 74%
    22:00 +5°C° 0 mm 8 mps 766 mmHg 76%
    23:00 +5°C° 0 mm 7 mps 767 mmHg 79%

    24 September, Monday

    Time Temperature Precipitation Wind Pressure Humidity
    00:00 +4°C° 0 mm 6 mps 768 mmHg 81%
    01:00 +4°C° 0 mm 6 mps 769 mmHg 83%
    02:00 +5°C° 0 mm 5 mps 769 mmHg 85%
    03:00 +5°C° 0 mm 5 mps 769 mmHg 87%
    04:00 +4°C° 0 mm 4 mps 770 mmHg 88%
    05:00 +4°C° 0 mm 4 mps 770 mmHg 88%
    06:00 +4°C° 0 mm 4 mps 771 mmHg 89%
    07:00 +6°C° 0 mm 4 mps 771 mmHg 85%
    08:00 +7°C° 0 mm 4 mps 772 mmHg 81%
    09:00 +9°C° 0 mm 3 mps 772 mmHg 76%
    10:00 +10°C° 0 mm 3 mps 772 mmHg 73%
    11:00 +11°C° 0 mm 3 mps 772 mmHg 69%
    12:00 +12°C° 0 mm 3 mps 773 mmHg 66%
    13:00 +12°C° 0 mm 3 mps 773 mmHg 66%
    14:00 +12°C° 0 mm 3 mps 772 mmHg 67%
    15:00 +12°C° 0 mm 3 mps 772 mmHg 68%
    16:00 +11°C° 0 mm 3 mps 772 mmHg 72%
    17:00 +10°C° 0 mm 3 mps 772 mmHg 76%
    18:00 +9°C° 0 mm 3 mps 772 mmHg 81%
    19:00 +9°C° 0 mm 3 mps 772 mmHg 81%
    20:00 +9°C° 0 mm 3 mps 772 mmHg 82%
    21:00 +8°C° 0 mm 4 mps 772 mmHg 82%
    22:00 +8°C° 0 mm 4 mps 771 mmHg 82%
    23:00 +8°C° 0 mm 4 mps 770 mmHg 82%
    Show more